Time,TemperatureF,DewpointF,PressureIn,WindDirection,WindDirectionDegrees,WindSpeedMPH,WindSpeedGustMPH,Humidity,HourlyPrecipIn,Conditions,Clouds,dailyrainin,SoftwareType,DateUTC
2013-07-22 00:08:00,68.5,67.9,29.89,West,270,0.0,-999.0,98,-99.99,,,0.00,Acu-Link.com,2013-07-22 04:08:00,
2013-07-22 00:23:00,68.2,67.6,29.90,WSW,247,0.0,-999.0,98,-99.99,,,0.00,Acu-Link.com,2013-07-22 04:23:00,
2013-07-22 00:39:00,68.2,67.6,29.89,WSW,247,0.0,-999.0,98,-99.99,,,0.00,Acu-Link.com,2013-07-22 04:39:00,
2013-07-22 00:54:00,68.0,67.4,29.89,WSW,247,1.1,-999.0,98,-99.99,,,0.00,Acu-Link.com,2013-07-22 04:54:00,
2013-07-22 01:09:00,67.8,67.2,29.88,WSW,247,0.0,-999.0,98,-99.99,,,0.00,Acu-Link.com,2013-07-22 05:09:00,
2013-07-22 01:24:00,67.6,67.0,29.88,WSW,247,0.0,-999.0,98,-99.99,,,0.00,Acu-Link.com,2013-07-22 05:24:00,
2013-07-22 01:40:00,67.5,66.9,29.88,WSW,247,0.0,-999.0,98,-99.99,,,0.00,Acu-Link.com,2013-07-22 05:40:00,
2013-07-22 01:55:00,67.1,66.5,29.87,WSW,247,0.0,-999.0,98,-99.99,,,0.00,Acu-Link.com,2013-07-22 05:55:00,
2013-07-22 02:10:00,67.1,66.5,29.86,West,270,1.7,-999.0,98,-99.99,,,0.00,Acu-Link.com,2013-07-22 06:10:00,
2013-07-22 02:26:00,66.9,66.3,29.86,WSW,247,1.7,-999.0,98,-99.99,,,0.00,Acu-Link.com,2013-07-22 06:26:00,
2013-07-22 02:41:00,66.7,66.1,29.85,WSW,247,0.0,-999.0,98,-99.99,,,0.00,Acu-Link.com,2013-07-22 06:41:00,
2013-07-22 02:56:00,66.4,65.8,29.84,WSW,247,0.0,-999.0,98,-99.99,,,0.00,Acu-Link.com,2013-07-22 06:56:00,
2013-07-22 03:12:00,66.2,65.6,29.84,WSW,247,0.0,-999.0,98,-99.99,,,0.00,Acu-Link.com,2013-07-22 07:12:00,
2013-07-22 03:27:00,66.0,65.4,29.84,WSW,247,0.0,-999.0,98,-99.99,,,0.00,Acu-Link.com,2013-07-22 07:27:00,
2013-07-22 03:42:00,66.0,65.4,29.83,ESE,112,0.0,-999.0,98,-99.99,,,0.00,Acu-Link.com,2013-07-22 07:42:00,
2013-07-22 03:58:00,65.8,65.2,29.83,SW,225,0.0,-999.0,98,-99.99,,,0.00,Acu-Link.com,2013-07-22 07:58:00,
2013-07-22 04:16:00,65.8,65.2,29.82,SW,225,0.0,-999.0,98,-99.99,,,0.00,Acu-Link.com,2013-07-22 08:16:00,
2013-07-22 04:31:00,65.8,65.2,29.82,WSW,247,0.0,-999.0,98,-99.99,,,0.00,Acu-Link.com,2013-07-22 08:31:00,
2013-07-22 04:46:00,65.8,65.2,29.82,West,270,0.0,-999.0,98,-99.99,,,0.00,Acu-Link.com,2013-07-22 08:46:00,
2013-07-22 05:01:00,65.8,65.2,29.82,WSW,247,0.0,-999.0,98,-99.99,,,0.00,Acu-Link.com,2013-07-22 09:01:00,
2013-07-22 05:17:00,66.0,65.4,29.83,West,270,0.0,-999.0,98,-99.99,,,0.00,Acu-Link.com,2013-07-22 09:17:00,
2013-07-22 05:32:00,66.0,65.4,29.83,SSW,202,0.0,-999.0,98,-99.99,,,0.00,Acu-Link.com,2013-07-22 09:32:00,
2013-07-22 05:47:00,65.7,65.1,29.85,ESE,112,0.0,-999.0,98,-99.99,,,0.00,Acu-Link.com,2013-07-22 09:47:00,
2013-07-22 06:02:00,65.7,65.1,29.85,SSW,202,0.0,-999.0,98,-99.99,,,0.00,Acu-Link.com,2013-07-22 10:02:00,
2013-07-22 06:17:00,65.7,65.1,29.85,SW,225,1.7,-999.0,98,-99.99,,,0.00,Acu-Link.com,2013-07-22 10:17:00,
2013-07-22 06:33:00,65.5,64.9,29.86,SSW,202,0.0,-999.0,98,-99.99,,,0.00,Acu-Link.com,2013-07-22 10:33:00,
2013-07-22 06:48:00,65.3,64.7,29.86,WSW,247,2.2,-999.0,98,-99.99,,,0.00,Acu-Link.com,2013-07-22 10:48:00,
2013-07-22 07:03:00,65.1,64.5,29.87,WSW,247,0.0,-999.0,98,-99.99,,,0.00,Acu-Link.com,2013-07-22 11:03:00,
2013-07-22 07:18:00,64.9,64.3,29.87,NNW,337,0.0,-999.0,98,-99.99,,,0.00,Acu-Link.com,2013-07-22 11:18:00,
2013-07-22 07:34:00,64.9,64.3,29.87,North,0,0.0,-999.0,98,-99.99,,,0.00,Acu-Link.com,2013-07-22 11:34:00,
2013-07-22 07:49:00,65.7,65.1,29.88,NW,315,0.0,-999.0,98,-99.99,,,0.00,Acu-Link.com,2013-07-22 11:49:00,
2013-07-22 08:04:00,66.9,66.3,29.89,North,0,0.0,-999.0,98,-99.99,,,0.00,Acu-Link.com,2013-07-22 12:04:00,
2013-07-22 08:20:00,67.8,67.2,29.89,South,180,0.0,-999.0,98,-99.99,,,0.00,Acu-Link.com,2013-07-22 12:20:00,
2013-07-22 08:35:00,68.4,67.8,29.89,South,180,0.0,-999.0,98,-99.99,,,0.00,Acu-Link.com,2013-07-22 12:35:00,
2013-07-22 08:50:00,69.6,69.0,29.89,East,90,0.0,-999.0,98,-99.99,,,0.00,Acu-Link.com,2013-07-22 12:50:00,
2013-07-22 09:05:00,70.5,69.9,29.90,SW,225,2.7,-999.0,98,-99.99,,,0.00,Acu-Link.com,2013-07-22 13:05:00,
2013-07-22 09:21:00,71.4,70.8,29.90,WNW,292,0.0,-999.0,98,-99.99,,,0.00,Acu-Link.com,2013-07-22 13:21:00,
2013-07-22 09:36:00,71.6,70.7,29.89,North,0,0.0,-999.0,97,-99.99,,,0.00,Acu-Link.com,2013-07-22 13:36:00,
2013-07-22 09:51:00,72.3,70.5,29.90,ESE,112,2.7,-999.0,94,-99.99,,,0.00,Acu-Link.com,2013-07-22 13:51:00,
2013-07-22 10:06:00,74.3,71.5,29.89,SW,225,4.2,-999.0,91,-99.99,,,0.00,Acu-Link.com,2013-07-22 14:06:00,
2013-07-22 10:22:00,77.5,73.7,29.89,West,270,0.0,-999.0,88,-99.99,,,0.00,Acu-Link.com,2013-07-22 14:22:00,
2013-07-22 10:37:00,82.4,75.6,29.89,NE,45,0.0,-999.0,80,-99.99,,,0.00,Acu-Link.com,2013-07-22 14:37:00,
2013-07-22 10:52:00,85.6,74.7,29.89,ESE,112,2.2,-999.0,70,-99.99,,,0.00,Acu-Link.com,2013-07-22 14:52:00,
2013-07-22 11:07:00,84.7,74.2,29.89,West,270,0.0,-999.0,71,-99.99,,,0.00,Acu-Link.com,2013-07-22 15:07:00,
2013-07-22 11:23:00,85.5,74.6,29.88,North,0,1.7,-999.0,70,-99.99,,,0.00,Acu-Link.com,2013-07-22 15:23:00,
2013-07-22 11:38:00,86.7,73.5,29.89,East,90,2.2,-999.0,65,-99.99,,,0.00,Acu-Link.com,2013-07-22 15:38:00,
2013-07-22 11:53:00,91.0,74.1,29.88,SW,225,2.7,-999.0,58,-99.99,,,0.00,Acu-Link.com,2013-07-22 15:53:00,
2013-07-22 12:08:00,88.7,73.0,29.87,SW,225,1.7,-999.0,60,-99.99,,,0.00,Acu-Link.com,2013-07-22 16:08:00,
2013-07-22 12:24:00,84.0,74.4,29.87,NNE,22,0.0,-999.0,73,-99.99,,,0.00,Acu-Link.com,2013-07-22 16:24:00,
2013-07-22 12:39:00,87.6,76.1,29.86,ESE,112,1.1,-999.0,69,-99.99,,,0.00,Acu-Link.com,2013-07-22 16:39:00,
2013-07-22 12:54:00,84.7,73.8,29.86,WSW,247,1.7,-999.0,70,-99.99,,,0.00,Acu-Link.com,2013-07-22 16:54:00,
2013-07-22 13:09:00,79.5,72.4,29.85,NE,45,0.0,-999.0,79,-99.99,,,0.00,Acu-Link.com,2013-07-22 17:09:00,
2013-07-22 13:25:00,76.8,71.9,29.85,ESE,112,2.7,-999.0,85,-99.99,,,0.01,Acu-Link.com,2013-07-22 17:25:00,
2013-07-22 13:40:00,79.3,74.4,29.84,East,90,2.2,-999.0,85,-99.99,,,0.01,Acu-Link.com,2013-07-22 17:40:00,
2013-07-22 13:55:00,81.1,74.7,29.84,NW,315,3.2,-999.0,81,-99.99,,,0.01,Acu-Link.com,2013-07-22 17:55:00,
2013-07-22 14:10:00,81.0,71.5,29.83,SW,225,2.2,-999.0,73,-99.99,,,0.01,Acu-Link.com,2013-07-22 18:10:00,
2013-07-22 14:25:00,81.1,72.4,29.82,WNW,292,1.1,-999.0,75,-99.99,,,0.01,Acu-Link.com,2013-07-22 18:25:00,
2013-07-22 14:41:00,80.1,72.2,29.81,NNE,22,1.7,-999.0,77,-99.99,,,0.01,Acu-Link.com,2013-07-22 18:41:00,
2013-07-22 14:56:00,78.6,72.6,29.81,ESE,112,2.2,-999.0,82,-99.99,,,0.01,Acu-Link.com,2013-07-22 18:56:00,
2013-07-22 15:11:00,77.7,71.4,29.82,NNW,337,1.7,-999.0,81,-99.99,,,0.01,Acu-Link.com,2013-07-22 19:11:00,
2013-07-22 15:42:00,80.8,72.9,29.81,ESE,112,1.7,-999.0,77,-99.99,,,0.01,Acu-Link.com,2013-07-22 19:42:00,
2013-07-22 15:57:00,82.2,72.7,29.81,NNW,337,3.2,-999.0,73,-99.99,,,0.01,Acu-Link.com,2013-07-22 19:57:00,
2013-07-22 16:12:00,81.0,73.5,29.79,ESE,112,1.7,-999.0,78,-99.99,,,0.01,Acu-Link.com,2013-07-22 20:12:00,
2013-07-22 16:28:00,85.3,74.8,29.78,North,0,3.2,-999.0,71,-99.99,,,0.01,Acu-Link.com,2013-07-22 20:28:00,
2013-07-22 16:43:00,87.3,74.5,29.78,SW,225,3.2,-999.0,66,-99.99,,,0.01,Acu-Link.com,2013-07-22 20:43:00,
2013-07-22 16:58:00,86.0,72.4,29.78,WNW,292,2.7,-999.0,64,-99.99,,,0.01,Acu-Link.com,2013-07-22 20:58:00,
2013-07-22 17:13:00,81.3,71.8,29.78,WSW,247,2.7,-999.0,73,-99.99,,,0.01,Acu-Link.com,2013-07-22 21:13:00,
2013-07-22 17:28:00,78.3,71.6,29.78,WSW,247,1.7,-999.0,80,-99.99,,,0.01,Acu-Link.com,2013-07-22 21:28:00,
2013-07-22 17:44:00,77.9,73.4,29.79,ENE,67,1.1,-999.0,86,-99.99,,,0.02,Acu-Link.com,2013-07-22 21:44:00,
2013-07-22 17:59:00,79.3,73.3,29.78,West,270,2.2,-999.0,82,-99.99,,,0.02,Acu-Link.com,2013-07-22 21:59:00,
2013-07-22 18:14:00,78.6,72.6,29.77,NNE,22,4.2,-999.0,82,-99.99,,,0.02,Acu-Link.com,2013-07-22 22:14:00,
2013-07-22 18:29:00,76.1,71.3,29.76,NNE,22,5.3,-999.0,85,-99.99,,,0.02,Acu-Link.com,2013-07-22 22:29:00,
2013-07-22 18:45:00,75.6,71.4,29.76,West,270,3.2,-999.0,87,-99.99,,,0.02,Acu-Link.com,2013-07-22 22:45:00,
2013-07-22 19:00:00,74.3,70.2,29.76,ESE,112,1.1,-999.0,87,-99.99,,,0.02,Acu-Link.com,2013-07-22 23:00:00,
2013-07-22 19:15:00,73.2,69.8,29.76,West,270,1.7,-999.0,89,-99.99,,,0.02,Acu-Link.com,2013-07-22 23:15:00,
2013-07-22 19:30:00,72.1,69.6,29.75,NNE,22,2.2,-999.0,92,-99.99,,,0.02,Acu-Link.com,2013-07-22 23:30:00,
2013-07-22 19:45:00,70.9,69.1,29.75,WNW,292,1.1,-999.0,94,-99.99,,,0.02,Acu-Link.com,2013-07-22 23:45:00,
2013-07-22 20:01:00,70.5,69.3,29.75,SSW,202,1.7,-999.0,96,-99.99,,,0.02,Acu-Link.com,2013-07-23 00:01:00,
2013-07-22 20:16:00,70.3,69.7,29.75,West,270,2.2,-999.0,98,-99.99,,,0.02,Acu-Link.com,2013-07-23 00:16:00,
2013-07-22 20:31:00,70.0,69.4,29.76,SW,225,0.0,-999.0,98,-99.99,,,0.02,Acu-Link.com,2013-07-23 00:31:00,
2013-07-22 20:46:00,69.8,69.2,29.75,West,270,0.0,-999.0,98,-99.99,,,0.02,Acu-Link.com,2013-07-23 00:46:00,
2013-07-22 21:01:00,69.8,69.2,29.76,West,270,0.0,-999.0,98,-99.99,,,0.02,Acu-Link.com,2013-07-23 01:01:00,
2013-07-22 21:17:00,69.8,69.2,29.76,West,270,0.0,-999.0,98,-99.99,,,0.03,Acu-Link.com,2013-07-23 01:17:00,
2013-07-22 21:32:00,69.8,69.2,29.76,SW,225,0.0,-999.0,98,-99.99,,,0.03,Acu-Link.com,2013-07-23 01:32:00,
2013-07-22 21:47:00,69.4,68.8,29.76,ESE,112,0.0,-999.0,98,-99.99,,,0.05,Acu-Link.com,2013-07-23 01:47:00,
2013-07-22 22:03:00,69.3,68.7,29.77,ESE,112,0.0,-999.0,98,-99.99,,,0.07,Acu-Link.com,2013-07-23 02:03:00,
2013-07-22 22:18:00,69.1,68.5,29.77,ENE,67,0.0,-999.0,98,-99.99,,,0.08,Acu-Link.com,2013-07-23 02:18:00,
2013-07-22 22:33:00,68.9,68.3,29.77,WNW,292,0.0,-999.0,98,-99.99,,,0.08,Acu-Link.com,2013-07-23 02:33:00,
2013-07-22 22:49:00,68.7,68.1,29.76,WNW,292,0.0,-999.0,98,-99.99,,,0.08,Acu-Link.com,2013-07-23 02:49:00,
2013-07-22 23:04:00,68.7,68.1,29.76,WNW,292,0.0,-999.0,98,-99.99,,,0.08,Acu-Link.com,2013-07-23 03:04:00,
2013-07-22 23:19:00,68.7,68.1,29.77,WNW,292,0.0,-999.0,98,-99.99,,,0.08,Acu-Link.com,2013-07-23 03:19:00,
2013-07-22 23:34:00,68.7,68.1,29.77,WNW,292,0.0,-999.0,98,-99.99,,,0.10,Acu-Link.com,2013-07-23 03:34:00,
2013-07-22 23:49:00,68.5,67.9,29.76,WNW,292,0.0,-999.0,98,-99.99,,,0.11,Acu-Link.com,2013-07-23 03:49:00,